Homer, AK

9:30 AM AKST on February 27, 2017 (GMT -0900)
Homer

Weather History for PAHO - March, 2015

Change the Weather History Date:

Thursday, March 26, 2015

  Actual Average Record
Temperature  
Mean Temperature 46 °F -  
Max Temperature 52 °F 39 °F 53 °F (1974)
Min Temperature 42 °F 27 °F 10 °F (1936)
Degree Days  
Heating Degree Days 18    
Moisture  
Dew Point 35 °F    
Average Humidity 64    
Maximum Humidity 76    
Minimum Humidity 52    
Precipitation  
Precipitation 0.00 in - - ()
Sea Level Pressure  
Sea Level Pressure 29.28 in    
Wind  
Wind Speed 8 mph (East)    
Max Wind Speed 13 mph    
Max Gust Speed 17 mph    
Visibility 10 miles    
Events Rain    
Averages and records for this station are not official NWS values.
T = Trace of Precipitation, MM = Missing Value Source: NWS Daily Summary

Daily Weather History Graph

Daily Weather History Graph

Search for Another Location

Airport or City:

Trip Planner

Search our weather history database for the weather conditions in past years. The results will help you decide how hot, cold, wet, or windy it might be!

Date:

Astronomy

Mar. 26, 2015 Rise Set
Actual Time 7:49 AM AKDT 8:34 PM AKDT
Civil Twilight 7:08 AM AKDT 9:16 PM AKDT
Nautical Twilight 6:17 AM AKDT 10:07 PM AKDT
Astronomical Twilight 5:20 AM AKDT 11:04 PM AKDT
Moon 11:33 AM AKDT (3/26) 3:50 AM AKDT (3/26)
Length of Visible Light 14h 08m
Length of Day
12h 45m
Waxing Crescent, 45% of the Moon is Illuminated
Mar 26
Waxing Crescent
Mar 26
First Quarter
Apr 4
Full
Apr 11
Last Quarter
Apr 18
New

Hourly Weather History & Observations

Time (AKDT) Temp. Windchill Dew Point Humidity Pressure Visibility Wind Dir Wind Speed Gust Speed Precip Events Conditions
12:53 AM 44.1 °F 39.5 °F 30.0 °F 58% 29.23 in 10.0 mi NE 8.1 mph - N/A   Partly Cloudy
1:53 AM 44.1 °F 41.5 °F 34.0 °F 68% 29.24 in 10.0 mi ENE 4.6 mph - 0.00 in Rain Light Rain
2:53 AM 43.0 °F 37.7 °F 33.1 °F 68% 29.23 in 10.0 mi ENE 9.2 mph - 0.00 in Rain Light Rain
3:53 AM 43.0 °F 37.7 °F 35.1 °F 74% 29.22 in 10.0 mi East 9.2 mph - 0.00 in Rain Light Rain
4:53 AM 44.1 °F - 34.0 °F 68% 29.20 in 10.0 mi Calm Calm - 0.00 in   Partly Cloudy
5:53 AM 45.0 °F 39.7 °F 34.0 °F 65% 29.19 in 10.0 mi NE 10.4 mph - 0.00 in   Partly Cloudy
6:53 AM 43.0 °F 38.2 °F 35.1 °F 74% 29.18 in 10.0 mi NE 8.1 mph - 0.00 in   Scattered Clouds
7:53 AM 42.1 °F 39.2 °F 35.1 °F 76% 29.18 in 10.0 mi ENE 4.6 mph - N/A   Mostly Cloudy
8:53 AM 45.0 °F 41.2 °F 35.1 °F 68% 29.19 in 10.0 mi NE 6.9 mph - N/A   Overcast
9:53 AM 46.9 °F - 35.1 °F 63% 29.18 in 10.0 mi ENE 8.1 mph - N/A   Mostly Cloudy
10:53 AM 48.9 °F - 34.0 °F 56% 29.19 in 10.0 mi ENE 12.7 mph - N/A   Overcast
11:53 AM 50.0 °F - 34.0 °F 54% 29.21 in 10.0 mi East 11.5 mph - N/A   Overcast
12:53 PM 51.1 °F - 34.0 °F 52% 29.22 in 10.0 mi East 9.2 mph - N/A   Scattered Clouds
1:53 PM 48.9 °F - 36.0 °F 61% 29.24 in 10.0 mi ESE 8.1 mph - N/A   Overcast
2:53 PM 50.0 °F - 34.0 °F 54% 29.25 in 10.0 mi ENE 5.8 mph - 0.00 in   Overcast
3:53 PM 50.0 °F - 37.0 °F 61% 29.27 in 10.0 mi Variable 5.8 mph - N/A   Overcast
4:53 PM 50.0 °F - 36.0 °F 59% 29.30 in 10.0 mi SE 5.8 mph - N/A   Overcast
5:53 PM 48.9 °F - 37.9 °F 66% 29.33 in 10.0 mi South 8.1 mph - N/A   Overcast
6:53 PM 48.9 °F - 37.0 °F 64% 29.35 in 10.0 mi ESE 5.8 mph - N/A   Overcast
7:53 PM 46.9 °F - 36.0 °F 66% 29.38 in 10.0 mi South 12.7 mph - N/A   Overcast
8:53 PM 45.0 °F 39.7 °F 35.1 °F 68% 29.42 in 10.0 mi South 10.4 mph 17.3 mph 0.00 in   Overcast
9:53 PM 45.0 °F 41.2 °F 35.1 °F 68% 29.47 in 10.0 mi South 6.9 mph - N/A   Overcast
10:53 PM 44.1 °F 39.5 °F 34.0 °F 68% 29.49 in 10.0 mi ESE 8.1 mph - 0.00 in   Mostly Cloudy
11:53 PM 44.1 °F 42.5 °F 33.1 °F 65% 29.51 in 10.0 mi SSE 3.5 mph - 0.00 in   Mostly Cloudy